Location: Bothwell
(41.7170°N, 112.2589°W)
Time: 04:02:05
(UTC+00:00)

Vanguard 2 - Pass Details

Date: 15 May 2026
Orbit: 553 x 2894 km, 32.9° (Epoch: 10 June)

Event Time Altitude Azimuth Distance (km) Brightness Sun altitude
Exits shadow 10:20:59 18° 239° (WSW) 5,008 11.0 -17.0°
Maximum altitude 10:34:57 59° 170° (S) 3,061 10.3 -15.2°
Drops below altitude 10° 10:48:55 10° 96° (E) 4,720 12.2 -13.3°
Sets 10:52:09 0° 93° (E) 5,458 12.6 -12.8°
